{"data":{"norad_id":53394,"intl_designator":"2022-097G","name":"STARLINK-4544","alt_names":[],"object_type":"PAYLOAD","status":"ACTIVE","operator":null,"country":"US","launch_date":"2022-08-10","launch_site_code":"AFETR","launch_vehicle":null,"mission":null,"orbit_class":"UNKNOWN","rcs_meters":null,"size_class":null,"mass_kg":null,"dimensions":null,"purposes":["comms"],"wikipedia_slug":null,"has_3d_model":false,"image_url":null,"decayed_at":null,"tle_current":{"epoch":"2026-09-19T20:05:51.568224Z","epoch_age_seconds":132606,"freshness":"FRESH","line1":"1 53394U 22097G   26262.83740241 -.00000523  00000+0 -51019-5 0  9993","line2":"2 53394  53.1612 310.6633 0001198  82.6984 277.4154 15.31703011228286","mean_motion":15.31703011,"eccentricity":0.0001198,"inclination_deg":53.1612,"raan_deg":310.6633,"arg_perigee_deg":82.6984,"mean_anomaly_deg":277.4154,"bstar":-5.1019e-6,"rev_number":22828,"period_min":94.013003151301,"perigee_km":469.91052521728,"apogee_km":471.55151399478,"semimajor_km":6848.868019606,"source":"CELESTRAK","updated_at":"2026-09-20T09:00:40.223961Z"}}}